Location: Ostrava
(49.8330°N, 18.2830°E)
Time: 17:21:00
(UTC+02:00)

Explorer 7 - Visible Passes

Search period start: 27 July 2016 00:00
Search period end: 06 August 2016 00:00
Orbit: 486 x 687 km, 50.3° (Epoch: 27 July)

Date Brightness Start Highest point End Pass type
(mag) Time Alt. Az. Time Alt. Az. Time Alt. Az.
27 Jul 9.0 01:37:03 18° SE 01:37:03 18° SE 01:39:41 10° E visible
27 Jul 7.5 03:13:26 23° SW 03:16:24 55° SSE 03:21:10 10° ENE visible
28 Jul 8.5 01:42:49 26° SE 01:42:49 26° SE 01:46:30 10° E visible
28 Jul 7.3 03:19:12 19° WSW 03:22:42 69° SSE 03:27:34 10° ENE visible
29 Jul 7.9 01:48:33 36° SSE 01:48:35 36° SSE 01:53:05 10° E visible
29 Jul 7.2 03:24:56 15° WSW 03:29:02 82° SSE 03:33:56 10° E visible
30 Jul 7.5 01:54:15 46° S 01:54:47 48° SSE 01:59:32 10° ENE visible
30 Jul 7.2 03:30:37 11° W 03:35:25 89° N 03:40:19 10° E visible
31 Jul 9.3 00:23:31 15° E 00:23:31 15° E 00:24:40 10° E visible
31 Jul 7.2 01:59:54 47° SSW 02:01:03 62° SSE 02:05:57 10° ENE visible
31 Jul 7.3 03:36:49 10° W 03:41:49 84° N 03:46:42 10° E visible
01 Aug 8.8 00:29:08 22° ESE 00:29:08 22° ESE 00:31:20 10° E visible
01 Aug 7.1 02:05:31 38° WSW 02:07:22 76° SSE 02:12:19 10° ENE visible
01 Aug 7.3 03:43:13 10° W 03:48:12 85° N 03:53:05 10° E visible
02 Aug 8.2 00:34:41 32° ESE 00:34:41 32° ESE 00:37:51 10° E visible
02 Aug 7.2 02:11:03 28° WSW 02:13:43 87° S 02:18:41 10° E visible
02 Aug 7.3 03:49:36 10° W 03:54:36 90° N 03:59:28 10° E visible
03 Aug 7.5 00:40:10 49° ESE 00:40:10 49° ESE 00:44:16 10° ENE visible
03 Aug 7.2 02:16:32 19° W 02:20:06 86° N 02:25:04 10° E visible
03 Aug 7.2 03:55:58 10° W 04:00:57 81° SSW 04:05:48 10° ESE visible
03 Aug 9.5 23:09:10 12° E 23:09:10 12° E 23:09:30 10° E visible
04 Aug 7.1 00:45:31 68° S 00:45:42 69° SSE 00:50:39 10° ENE visible
04 Aug 7.3 02:21:52 12° W 02:26:30 84° N 02:31:26 10° E visible
04 Aug 7.2 04:02:21 10° WNW 04:07:17 68° SSW 04:12:05 10° ESE visible
04 Aug 8.8 23:14:16 20° E 23:14:16 20° E 23:16:05 10° E visible
05 Aug 7.1 00:50:35 47° WSW 00:52:01 82° SSE 00:57:00 10° E visible
05 Aug 7.2 02:27:54 10° W 02:32:54 86° NNE 02:37:50 10° E visible
05 Aug 7.4 04:08:44 10° WNW 04:13:34 53° SSW 04:18:16 10° SE visible
05 Aug 9.1 21:35:25 10° SSE 21:42:04 - E 21:35:55 11° SSE visible
05 Aug 7.4 23:18:12 46° SE 23:18:12 46° SE 23:22:32 10° ENE visible
